Theta_e
308 308 307 306 306 303 302 302 299 309 307 303 298 296 295 297 301 302 300 301 298 297 297 297 297 297 300 303 303 299 303 302 297 299 300 301 301 302 304 297 295 296 295 295
308 308 307 306 305 303 300 298 299 308 306 293 292 294 293 297 297 297 297 296 298 300 297 295 297 298 302 303 302 301 303 298 293 294 298 301 299 300 300 299 299 297 293 295
308 308 307 306 305 303 301 298 293 297 299 296 291 290 290 291 297 295 295 295 296 294 294 298 296 296 300 301 303 307 305 299 296 290 294 299 296 298 298 300 296 296 295 297
307 308 307 307 304 302 298 294 291 291 288 288 290 291 290 289 290 294 295 293 291 290 289 291 292 293 294 299 301 301 300 295 296 297 297 297 297 296 298 297 298 295 297 297
306 307 307 307 305 301 295 290 289 292 289 290 290 289 288 288 288 289 289 288 289 290 288 289 287 289 291 293 297 296 298 294 296 293 296 296 294 296 296 298 299 298 299 298
305 306 307 307 305 299 293 294 294 293 287 288 287 287 286 287 288 289 291 289 287 287 289 291 292 293 293 293 292 292 293 293 292 289 294 294 290 295 296 298 300 300 295 301
305 305 305 307 306 299 296 294 294 289 284 285 285 286 286 286 286 284 287 289 286 290 295 294 294 293 293 293 293 295 292 292 293 290 291 283 295 300 300 298 299 301 302 301
305 305 305 305 306 303 298 296 295 290 283 286 285 286 285 286 287 286 286 288 292 294 291 285 283 285 288 290 292 292 295 292 289 287 287 291 294 297 297 296 297 302 300 302
304 305 305 305 305 303 302 297 297 294 286 285 287 285 286 284 284 284 286 291 294 292 287 284 278 277 282 283 288 295 294 295 291 287 284 281 293 299 303 301 292 303 303 302
305 305 305 307 306 305 302 300 298 295 288 290 289 285 285 288 286 284 286 288 288 290 285 280 279 278 285 280 281 284 288 289 286 287 285 289 297 300 302 290 294 302 304 305
305 305 305 306 306 306 302 299 298 295 289 290 292 291 288 288 288 283 287 285 286 286 282 283 282 282 285 284 286 286 286 286 286 287 284 282 300 301 294 300 305 304 304 305
305 305 305 306 305 305 302 295 298 297 291 290 295 295 296 294 293 289 288 287 286 288 285 286 286 282 284 283 280 290 284 289 287 289 290 299 302 301 303 303 303 303 304 303
305 305 305 305 305 305 303 297 298 297 291 290 290 290 295 297 297 298 287 289 291 288 293 287 287 281 286 281 283 285 289 290 286 287 294 297 298 302 302 302 303 303 304 303
305 305 305 305 305 304 304 299 299 297 293 285 288 296 293 297 296 294 295 293 295 294 293 288 285 283 289 285 287 287 289 290 287 288 291 297 300 300 300 300 302 302 303 303
304 304 304 304 304 305 302 298 298 299 293 285 287 293 295 296 297 296 294 292 290 289 287 287 284 289 287 290 288 285 291 289 287 287 295 295 297 300 300 300 300 301 301 301
304 304 304 304 304 301 298 292 297 300 299 289 283 293 292 295 296 294 294 292 291 290 288 288 290 293 290 285 284 291 293 296 297 295 299 300 298 301 302 302 302 302 301 301
303 303 304 305 305 301 295 293 296 300 299 289 284 286 292 295 297 297 296 292 292 291 289 287 289 290 290 288 283 290 294 296 297 299 299 297 297 297 300 299 300 299 299 299
304 303 303 304 304 301 297 300 302 302 295 291 284 284 288 295 290 290 295 291 292 290 288 290 288 290 289 284 290 293 295 295 292 295 296 297 299 300 298 299 300 298 297 297
302 301 302 299 298 296 297 302 302 301 296 287 286 283 283 295 292 292 292 291 287 291 287 288 289 286 284 287 288 292 292 291 291 297 299 298 298 297 296 297 297 296 294 294
299 298 295 293 297 301 301 298 294 294 294 291 286 289 285 290 289 288 289 288 287 285 287 288 285 285 289 292 289 293 297 298 299 296 295 295 295 295 295 295 296 295 294 294
297 293 292 297 300 297 294 289 289 289 286 290 289 289 286 293 286 286 290 286 288 285 288 287 286 286 293 298 298 300 300 301 300 300 299 298 298 296 294 294 295 295 294 294
297 296 299 297 294 292 289 287 290 287 286 291 289 289 290 290 292 289 291 287 290 285 292 289 285 290 297 299 299 300 302 301 299 299 298 297 297 296 295 294 294 294 295 295
299 295 290 290 289 284 283 282 286 286 290 292 291 287 290 291 292 289 289 286 286 293 288 285 287 295 298 300 300 300 301 301 300 300 300 298 297 297 297 295 295 295 295 295
292 289 284 286 285 287 287 287 286 290 291 290 290 290 289 290 288 290 284 289 292 286 283 285 292 295 296 301 301 300 300 300 301 302 302 300 300 299 298 297 298 297 296 295
291 290 284 287 291 290 291 291 289 292 293 290 290 291 290 289 288 289 289 288 284 285 285 290 295 297 298 299 300 300 299 299 301 302 303 303 303 302 301 300 299 298 296 296
292 291 289 291 289 290 290 289 290 294 293 292 291 289 288 287 288 286 285 285 283 287 292 295 297 299 300 301 302 301 302 303 303 304 304 305 305 304 304 303 301 301 299 297
290 290 292 290 289 289 288 290 293 298 293 289 290 287 285 290 288 285 285 285 290 294 297 299 299 300 302 303 303 303 303 303 303 302 304 305 306 306 305 302 304 304 303 302
Wind_Speed
24 27 30 32 32 35 8 4 2 9 10 3 3 3 8 5 6 6 4 3 3 3 2 3 4 6 4 8 1 3 2 3 7 11 2 2 0 7 12 9 10 3 4 8
24 26 29 32 32 26 5 4 4 6 6 5 4 6 5 3 8 7 7 4 6 5 4 5 5 4 4 11 2 2 5 4 8 7 5 4 6 5 2 3 2 12 8 7
23 24 26 30 32 27 2 3 5 5 6 3 4 6 3 6 8 2 6 7 5 5 3 2 5 4 3 9 7 8 3 6 8 12 6 2 4 6 6 9 9 13 14 17
21 22 23 26 31 27 2 6 3 2 5 5 6 3 6 6 7 6 9 3 11 7 5 6 3 7 9 4 8 4 3 9 7 12 11 8 13 15 12 15 17 15 14 15
21 21 22 22 28 19 6 4 5 4 3 5 7 7 5 6 6 5 6 6 14 10 6 5 6 10 4 5 8 7 5 7 8 18 14 13 20 21 21 21 21 20 19 18
20 19 20 20 22 14 5 2 1 3 6 6 5 3 7 8 10 6 4 14 15 12 10 13 15 15 16 16 13 8 6 4 3 16 8 11 17 20 22 20 16 16 19 18
17 18 18 19 16 10 2 2 1 3 3 6 5 11 11 10 9 14 17 18 14 6 16 17 16 17 19 20 20 16 12 9 4 7 4 15 11 5 12 19 19 18 16 10
16 17 17 17 15 13 4 1 2 2 3 6 10 10 10 14 12 11 12 14 9 11 11 9 10 7 8 15 26 25 21 15 9 7 11 15 18 1 4 8 12 13 15 14
15 16 16 15 14 4 2 1 1 0 4 1 8 8 11 11 11 8 10 11 13 7 6 7 8 6 8 5 2 5 20 17 14 6 8 14 8 3 17 6 16 9 11 9
14 15 15 15 11 8 3 2 1 1 3 4 6 8 8 6 8 8 12 7 7 4 4 7 9 12 9 8 10 10 5 8 17 14 9 8 3 5 4 11 0 8 9 10
13 14 15 15 13 10 1 2 1 2 3 11 7 5 10 8 8 8 8 8 2 4 5 3 3 6 3 6 7 10 7 4 6 11 12 18 10 5 11 7 7 7 7 9
13 13 13 13 12 11 2 2 2 3 4 10 15 19 20 19 22 11 4 6 6 4 5 2 3 5 3 6 5 3 7 6 6 5 3 6 6 8 10 9 10 5 4 4
12 13 13 13 12 10 6 4 4 3 4 7 4 4 2 5 9 11 4 4 5 4 6 2 2 5 3 4 4 5 4 4 5 9 1 10 14 10 8 7 7 5 8 15
13 13 14 14 13 11 8 4 0 2 3 4 5 3 8 4 4 7 15 15 4 3 2 2 3 4 4 3 5 7 7 3 5 8 12 14 4 11 8 2 7 8 13 15
15 15 16 15 14 11 1 2 3 3 1 4 9 18 5 7 7 8 10 12 8 2 3 4 4 2 3 3 3 6 4 5 4 4 4 6 9 7 2 8 13 14 19 19
17 18 18 16 13 3 1 1 3 3 2 3 5 5 7 7 10 14 10 8 5 3 3 3 3 4 3 4 3 5 5 6 8 7 8 7 5 3 7 13 15 15 15 14
19 20 18 13 7 2 1 2 3 4 0 2 5 7 4 6 5 3 1 4 3 4 2 3 3 3 4 3 5 5 9 9 10 11 8 6 4 5 9 11 15 16 16 14
21 17 12 5 7 3 2 0 3 3 2 1 4 7 6 5 4 3 0 2 2 4 2 2 2 2 3 5 5 11 11 8 7 15 16 17 11 5 8 8 12 14 14 14
17 10 3 0 1 1 1 10 2 0 2 3 2 5 7 6 4 3 2 2 1 1 2 2 2 2 4 4 8 9 6 7 5 4 11 13 7 10 9 11 11 14 11 11
8 2 1 1 1 10 5 2 1 1 1 2 4 2 4 4 5 3 3 2 2 1 1 1 2 2 8 2 6 4 3 6 7 10 11 11 12 11 11 11 10 11 10 10
3 5 2 4 9 2 0 1 2 3 3 2 3 3 6 2 4 4 3 4 3 5 5 5 5 7 13 14 11 4 2 4 4 9 10 11 12 12 11 11 11 11 10 9
3 3 3 3 3 2 4 3 1 2 4 4 4 5 4 3 3 3 4 4 5 5 7 4 5 9 15 13 14 15 13 16 15 14 13 12 11 11 11 10 11 10 10 8
1 1 1 3 4 7 5 5 3 5 4 3 6 8 2 3 2 3 3 5 5 5 5 4 4 11 12 11 12 15 15 13 14 13 12 10 9 9 10 9 9 10 8 7
2 5 7 4 4 2 4 6 5 5 5 8 7 4 2 3 3 3 5 4 3 5 6 7 8 13 11 9 9 13 13 9 8 8 8 7 7 6 6 5 6 7 8 6
3 2 5 3 1 5 8 7 5 5 6 3 4 3 1 2 2 4 3 3 5 6 6 5 7 10 6 8 8 10 10 2 3 2 3 2 3 4 3 5 5 5 5 5
2 3 4 5 5 8 5 7 7 4 2 2 2 3 3 5 4 6 6 3 5 3 5 6 8 7 6 5 4 5 4 5 5 5 6 6 5 3 3 4 5 5 6 6
2 2 1 4 4 6 6 8 5 6 4 2 1 4 4 4 3 3 4 4 2 5 6 5 7 9 9 5 3 5 5 4 3 5 4 5 5 3 1 2 4 5 6 5
Wind_Direction
3 1 358 354 357 348 34 346 11 345 331 41 28 35 330 320 339 7 338 297 280 267 287 259 247 243 266 358 272 223 124 198 231 220 106 307 220 248 205 219 211 237 290 261
5 3 360 354 355 5 322 10 307 344 342 57 24 331 314 316 8 4 348 325 5 1 297 281 245 237 88 13 327 232 179 213 237 221 194 165 222 182 180 99 63 219 242 248
8 5 2 355 349 356 353 3 355 3 41 42 11 351 345 334 354 92 0 347 27 349 308 307 289 311 19 340 3 13 237 199 228 243 261 129 202 198 201 229 239 251 239 270
9 6 3 358 349 351 348 13 60 24 350 6 352 318 353 332 345 351 3 127 39 4 296 311 293 8 333 325 6 13 337 248 224 251 250 240 264 256 218 217 239 239 259 239
10 8 6 4 355 354 70 18 355 5 7 312 332 10 42 9 350 317 341 7 341 333 284 320 313 342 303 294 333 340 360 274 268 267 263 247 258 254 252 236 240 244 258 259
10 9 9 14 10 7 59 36 62 300 29 353 331 54 352 324 340 291 321 341 318 303 315 314 294 279 266 266 283 298 296 289 227 260 254 251 256 241 235 233 227 232 239 257
8 11 11 14 28 42 66 40 317 354 358 332 326 318 316 318 321 295 296 303 291 316 324 303 275 254 250 246 244 236 249 256 249 267 239 238 261 331 249 236 235 222 246 250
6 10 12 14 32 34 57 55 4 17 304 286 306 327 324 310 312 295 296 291 296 317 291 284 279 239 239 234 235 226 217 228 242 231 222 261 264 254 231 214 243 229 233 244
7 9 9 10 15 48 29 71 27 343 298 284 334 305 299 303 307 308 287 305 305 305 277 250 250 256 305 257 245 227 217 229 220 190 224 232 288 283 260 241 259 245 230 206
4 8 4 2 6 33 3 20 329 320 287 281 316 302 311 305 296 287 299 325 304 297 253 251 253 256 267 254 247 275 182 209 219 224 237 259 291 339 317 207 65 337 227 207
1 2 3 11 13 20 31 14 220 306 265 289 268 272 274 272 258 267 308 302 123 262 254 277 280 275 21 272 269 270 257 239 198 220 234 241 20 290 240 342 316 307 219 192
356 354 354 356 3 10 94 349 193 183 236 275 298 281 269 255 260 277 207 269 302 319 304 317 317 307 267 312 291 4 255 350 312 294 226 355 337 301 306 287 274 298 236 155
348 346 341 344 347 350 360 317 316 245 276 290 277 271 307 226 235 233 242 205 224 213 225 302 304 284 321 281 280 301 166 123 334 335 39 310 315 306 289 291 267 266 145 142
340 332 330 330 328 329 331 303 265 257 275 292 290 291 285 291 201 218 220 251 224 278 266 254 261 282 191 275 301 288 290 230 217 236 270 311 317 339 310 60 101 140 134 129
330 327 324 317 315 319 358 265 224 261 297 297 298 306 256 240 232 239 224 231 236 202 219 214 231 243 250 239 287 267 255 281 256 275 342 294 327 337 163 128 119 119 117 111
325 323 319 310 307 353 354 229 182 206 201 312 296 313 266 283 262 270 260 220 195 195 208 209 234 257 258 265 264 263 270 308 287 294 333 336 355 51 106 104 96 94 98 97
323 321 312 303 287 167 242 359 358 185 215 264 291 280 264 288 302 312 221 157 169 198 198 221 230 211 201 247 258 305 317 324 360 314 264 168 127 48 42 73 80 82 85 80
326 324 322 15 114 133 227 43 313 155 250 276 294 279 296 17 316 305 335 273 157 194 208 218 223 183 221 252 278 325 304 58 38 55 65 94 113 85 78 84 97 87 84 86
329 334 106 184 50 3 352 295 122 108 310 307 289 300 316 357 301 298 284 340 248 176 241 237 210 195 239 300 340 4 78 120 242 287 129 161 111 89 89 93 89 93 89 91
346 31 356 344 59 303 307 136 246 213 202 231 257 296 281 316 325 298 296 291 314 299 78 316 282 39 271 211 178 243 81 32 12 70 91 101 99 95 87 84 89 97 102 95
22 16 342 315 315 267 302 333 13 348 274 237 282 282 303 325 312 311 329 315 329 355 18 357 26 38 17 32 73 109 144 104 75 81 73 89 101 102 97 92 92 95 98 95
306 303 291 299 325 356 351 4 343 17 320 318 312 303 298 309 297 303 333 337 325 42 341 17 31 10 10 33 49 54 61 66 67 76 79 81 88 98 96 95 95 93 91 103
177 237 323 353 352 26 18 326 301 314 316 279 316 321 324 301 315 296 334 13 6 313 17 39 21 358 10 24 56 67 62 65 71 75 75 76 86 90 97 103 107 114 115 106
35 6 21 29 1 332 283 279 278 281 275 303 311 289 330 326 321 347 4 356 356 21 17 25 357 351 356 33 60 85 86 49 15 58 71 82 89 100 112 116 123 122 116 115
47 15 21 343 294 268 274 288 280 275 273 291 297 278 268 297 332 3 326 37 55 17 5 341 333 347 14 49 59 72 52 16 243 285 333 348 83 110 152 165 159 135 141 164
42 67 339 315 293 325 328 313 304 292 285 286 232 309 331 37 355 22 21 36 33 360 324 334 330 350 59 90 150 222 156 232 302 307 321 306 288 247 231 164 187 192 195 208
31 4 333 316 305 291 306 299 297 327 324 37 354 35 15 291 28 47 11 37 338 328 343 351 360 352 359 9 253 248 254 276 288 280 304 311 330 322 244 186 207 210 215 219